DECAYED

STARLINK-1833, 46759 (Decayed)

Orbit data source: Space-Track

STARLINK-1833, 46759 was a payload satellite owned by SpaceX/Seattle (US) in LEO that was launched on Sat, 24 Oct 2020 UTC via an FALCON 9 launch vehicle from the Air Force Eastern Test Range (AFETR). Payload-class satellites include a variety of spacecraft equipped with specific instruments for various scientific and technological missions. These include communications satellites like Starlink; space stations such as the ISS; scientific satellites like the Hubble; Earth observation satellites from companies like Planet Labs, Umbra, and HawkEye 360; GPS; miniature CubeSats for education and research; and military/defense satellites.

Not visible in the next 10 days
Identifier
46759, 2020-074W
Orbit
Decayed
Country
Flag of USUS
Related business
Manufacturer
SpaceX/Seattle
Mission
Decayed Commercial Communications
Bus & Motor
STARLINK, Unknown motor
Mass
260 kg wet, ~248 kg dry
Launch date (UTC)
2020-10-24 (5 years ago)
Launch vehicle
FALCON 9
Launch site
Air Force Eastern Test Range (AFETR)
Object type
Payload
Rocket body
Debris
Shape & HBR
Box + 1 Pan, 10.1 m
Radar Cross Section
13.562 m², Large (>1 m²)

Expand to show TLE details & history
Last TLE update: 7 months ago

TLE from 7 months ago
0 STARLINK-1833
1 46759U 20074W   25137.54596578  .22649025  12608-4  43297-3 0  9990
2 46759  53.0278 185.6786 0005534 301.7426 171.1391 16.47044187252126
Epoch: 2025-05-17T13:06Z
TLE epoch observation values (Epoch: 2025-05-17T13:06:11.443Z)
Latitude
47.54482°
Longitude
-121.24773°
Altitude
155.901 km
Speed
7.817 km/s
True Right ascension
20h 43m 08s
True Declination
47° 21' 28"
Sunlit
Object was in daylight at epoch
Visualization orbit readout
Latitude
Unknown
Longitude
Unknown
Altitude
Unknown
Speed
Unknown
Apparent Right ascension
Unknown
Apparent Declination
Unknown
Sunlit
N/A
Visualization observer readout
Local Sidereal Time
03:30:05
Azimuth
Unknown
Elevation
Unknown
Doppler factor
Unknown
Orbital elements
Apogee altitude
151.033 km
Perigee altitude
143.811 km
Semi-major axis
6,525.559 km
Eccentricity
0.00055
Inclination
53.0278°
RAAN
185.6786°
Arg. of periapsis
301.7426°
True anomaly
171.14886°
Mean anomaly
171.1391°
Eccentric anomaly
171.14398°
Mean motion
4.11734 °/min
Orbital period
87.44 mins
BSTAR
0.00043297
Loading maneuver chart data...
Computing Atmospheric mass density...

Documentation

Showing up to 5 results
|